Hourly Weather Jurki

Today, 8 March, Monday

Time Temperature Precipitation Wind Pressure Humidity
00:00 -4°C° 0.2 mm 5 mps 746 mmHg 86%
01:00 -3°C° 0.2 mm 4 mps 746 mmHg 83%
02:00 -4°C° 0 mm 4 mps 746 mmHg 89%
03:00 -4°C° 0 mm 4 mps 746 mmHg 90%
04:00 -5°C° 0 mm 4 mps 746 mmHg 91%
05:00 -5°C° 0 mm 3 mps 746 mmHg 93%
06:00 -5°C° 0 mm 4 mps 746 mmHg 90%
07:00 -7°C° 0 mm 4 mps 746 mmHg 87%
08:00 -7°C° 0 mm 4 mps 747 mmHg 84%
09:00 -5°C° 0 mm 5 mps 747 mmHg 79%
10:00 -4°C° 0 mm 6 mps 748 mmHg 74%
11:00 -3°C° 0 mm 6 mps 748 mmHg 69%
12:00 -2°C° 0.1 mm 6 mps 748 mmHg 66%
13:00 -2°C° 0.1 mm 6 mps 748 mmHg 64%
14:00 -2°C° 0.1 mm 6 mps 748 mmHg 62%
15:00 -1°C° 0.1 mm 5 mps 749 mmHg 63%
16:00 -1°C° 0.1 mm 5 mps 749 mmHg 65%
17:00 -1°C° 0.1 mm 5 mps 749 mmHg 66%
18:00 -2°C° 0 mm 4 mps 749 mmHg 72%
19:00 -2°C° 0 mm 3 mps 749 mmHg 77%
20:00 -4°C° 0 mm 3 mps 750 mmHg 83%
21:00 -4°C° 0 mm 3 mps 750 mmHg 83%
22:00 -5°C° 0 mm 3 mps 750 mmHg 83%
23:00 -5°C° 0 mm 3 mps 751 mmHg 84%

Tomorrow, 9 March, Tuesday

Time Temperature Precipitation Wind Pressure Humidity
00:00 -5°C° 0 mm 3 mps 751 mmHg 84%
01:00 -6°C° 0 mm 3 mps 751 mmHg 85%
02:00 -6°C° 0 mm 3 mps 751 mmHg 86%
03:00 -6°C° 0 mm 3 mps 751 mmHg 87%
04:00 -6°C° 0 mm 3 mps 751 mmHg 88%
05:00 -5°C° 0 mm 2 mps 751 mmHg 88%
06:00 -5°C° 0 mm 2 mps 752 mmHg 86%
07:00 -5°C° 0 mm 2 mps 752 mmHg 84%
08:00 -5°C° 0 mm 2 mps 752 mmHg 82%
09:00 -2°C° 0 mm 1 mps 752 mmHg 74%
10:00 -1°C° 0 mm 1 mps 753 mmHg 66%
11:00 -1°C° 0 mm 1 mps 753 mmHg 57%
12:00 0°C° 0 mm 1 mps 753 mmHg 54%
13:00 0°C° 0 mm 1 mps 753 mmHg 50%
14:00 +1°C° 0 mm 1 mps 753 mmHg 47%
15:00 +1°C° 0 mm 1 mps 753 mmHg 47%
16:00 0°C° 0 mm 1 mps 753 mmHg 47%
17:00 0°C° 0 mm 1 mps 752 mmHg 46%
18:00 0°C° 0 mm 1 mps 752 mmHg 51%
19:00 -1°C° 0 mm 1 mps 753 mmHg 55%
20:00 -3°C° 0 mm 2 mps 753 mmHg 59%
21:00 -3°C° 0 mm 2 mps 753 mmHg 59%
22:00 -3°C° 0 mm 2 mps 753 mmHg 60%
23:00 -3°C° 0 mm 2 mps 753 mmHg 60%

Day after tomorrow, 10 March, Wednesday

Time Temperature Precipitation Wind Pressure Humidity
00:00 -3°C° 0 mm 2 mps 753 mmHg 61%
01:00 -4°C° 0 mm 2 mps 753 mmHg 61%
02:00 -4°C° 0 mm 2 mps 753 mmHg 62%
03:00 -4°C° 0 mm 2 mps 752 mmHg 62%
04:00 -4°C° 0 mm 2 mps 752 mmHg 63%
05:00 -4°C° 0 mm 2 mps 752 mmHg 63%
06:00 -4°C° 0 mm 2 mps 752 mmHg 63%
07:00 -4°C° 0 mm 2 mps 752 mmHg 63%
08:00 -2°C° 0 mm 1 mps 753 mmHg 63%
09:00 -1°C° 0 mm 1 mps 753 mmHg 58%
10:00 0°C° 0 mm 1 mps 753 mmHg 53%
11:00 +1°C° 0 mm 1 mps 753 mmHg 49%
12:00 +1°C° 0 mm 1 mps 753 mmHg 46%
13:00 +2°C° 0 mm 1 mps 753 mmHg 44%
14:00 +2°C° 0 mm 1 mps 753 mmHg 41%
15:00 +2°C° 0 mm 1 mps 753 mmHg 42%
16:00 +2°C° 0 mm 1 mps 753 mmHg 42%
17:00 +1°C° 0 mm 0 mps 753 mmHg 43%
18:00 +1°C° 0 mm 1 mps 753 mmHg 47%
19:00 0°C° 0 mm 1 mps 754 mmHg 50%
20:00 -3°C° 0 mm 2 mps 754 mmHg 54%
21:00 -3°C° 0 mm 2 mps 754 mmHg 54%
22:00 -3°C° 0 mm 2 mps 754 mmHg 55%
23:00 -3°C° 0 mm 2 mps 754 mmHg 55%

11 March, Thursday

Time Temperature Precipitation Wind Pressure Humidity
00:00 -3°C° 0 mm 2 mps 754 mmHg 56%
01:00 -3°C° 0 mm 2 mps 754 mmHg 57%
02:00 -3°C° 0 mm 2 mps 754 mmHg 57%
03:00 -3°C° 0 mm 2 mps 754 mmHg 59%
04:00 -3°C° 0 mm 2 mps 753 mmHg 61%
05:00 -4°C° 0 mm 2 mps 753 mmHg 62%
06:00 -4°C° 0 mm 3 mps 753 mmHg 64%
07:00 -4°C° 0 mm 4 mps 753 mmHg 66%
08:00 -4°C° 0 mm 4 mps 752 mmHg 68%
09:00 -4°C° 0 mm 5 mps 752 mmHg 64%
10:00 -2°C° 0 mm 5 mps 752 mmHg 61%
11:00 -2°C° 0 mm 6 mps 751 mmHg 57%
12:00 -1°C° 0 mm 6 mps 750 mmHg 56%
13:00 -1°C° 0 mm 7 mps 749 mmHg 55%
14:00 0°C° 0 mm 7 mps 749 mmHg 54%
15:00 +1°C° 0 mm 6 mps 748 mmHg 53%
16:00 +1°C° 0 mm 6 mps 747 mmHg 53%
17:00 +1°C° 0 mm 6 mps 746 mmHg 53%
18:00 -1°C° 0.3 mm 6 mps 745 mmHg 66%
19:00 -2°C° 0.3 mm 7 mps 745 mmHg 79%
20:00 -4°C° 0.3 mm 8 mps 744 mmHg 92%
21:00 -2°C° 0.8 mm 8 mps 743 mmHg 93%
22:00 -2°C° 0.8 mm 8 mps 743 mmHg 95%
23:00 -2°C° 0.8 mm 8 mps 742 mmHg 97%

12 March, Friday

Time Temperature Precipitation Wind Pressure Humidity
00:00 -1°C° 0.6 mm 7 mps 741 mmHg 94%
01:00 -1°C° 0.6 mm 7 mps 741 mmHg 92%
02:00 0°C° 0.6 mm 7 mps 740 mmHg 90%
03:00 +1°C° 0.1 mm 6 mps 740 mmHg 89%
04:00 +1°C° 0.1 mm 6 mps 740 mmHg 89%
05:00 +1°C° 0.1 mm 6 mps 740 mmHg 89%
06:00 +1°C° 0 mm 6 mps 740 mmHg 90%
07:00 +1°C° 0 mm 6 mps 741 mmHg 90%
08:00 +2°C° 0 mm 6 mps 741 mmHg 90%
09:00 +3°C° 0.1 mm 6 mps 741 mmHg 87%
10:00 +3°C° 0.1 mm 7 mps 742 mmHg 84%
11:00 +4°C° 0.1 mm 7 mps 742 mmHg 80%
12:00 +5°C° 0.1 mm 7 mps 742 mmHg 77%
13:00 +5°C° 0.1 mm 7 mps 742 mmHg 73%
14:00 +5°C° 0.1 mm 8 mps 743 mmHg 69%
15:00 +5°C° 0.1 mm 7 mps 743 mmHg 70%
16:00 +5°C° 0.1 mm 6 mps 743 mmHg 70%
17:00 +5°C° 0.1 mm 5 mps 743 mmHg 71%
18:00 +4°C° 0 mm 4 mps 743 mmHg 75%
19:00 +3°C° 0 mm 3 mps 744 mmHg 78%
20:00 +2°C° 0 mm 3 mps 744 mmHg 82%
21:00 +2°C° 0 mm 3 mps 744 mmHg 83%
22:00 +1°C° 0 mm 3 mps 745 mmHg 83%
23:00 +1°C° 0 mm 3 mps 745 mmHg 84%

13 March, Saturday

Time Temperature Precipitation Wind Pressure Humidity
00:00 +1°C° 0 mm 3 mps 745 mmHg 84%
01:00 +1°C° 0 mm 3 mps 745 mmHg 84%
02:00 0°C° 0 mm 3 mps 744 mmHg 85%
03:00 0°C° 0 mm 3 mps 744 mmHg 85%
04:00 -1°C° 0 mm 4 mps 744 mmHg 86%
05:00 -1°C° 0 mm 4 mps 744 mmHg 86%
06:00 -1°C° 0 mm 4 mps 744 mmHg 86%
07:00 0°C° 0 mm 4 mps 744 mmHg 86%
08:00 0°C° 0 mm 5 mps 744 mmHg 86%
09:00 +2°C° 0 mm 5 mps 744 mmHg 81%
10:00 +3°C° 0 mm 5 mps 744 mmHg 76%
11:00 +5°C° 0 mm 6 mps 743 mmHg 71%
12:00 +7°C° 0 mm 6 mps 743 mmHg 67%
13:00 +8°C° 0 mm 6 mps 743 mmHg 64%
14:00 +9°C° 0 mm 6 mps 743 mmHg 60%
15:00 +8°C° 0.2 mm 6 mps 742 mmHg 62%
16:00 +8°C° 0.2 mm 5 mps 742 mmHg 65%
17:00 +8°C° 0.2 mm 4 mps 742 mmHg 67%
18:00 +6°C° 0.1 mm 4 mps 742 mmHg 73%
19:00 +5°C° 0.1 mm 3 mps 742 mmHg 78%
20:00 +4°C° 0.1 mm 3 mps 742 mmHg 83%
21:00 +4°C° 1 mm 3 mps 742 mmHg 86%
22:00 +4°C° 1 mm 4 mps 742 mmHg 89%
23:00 +2°C° 1 mm 5 mps 742 mmHg 92%
Show more

We Need Your Consent

Meteoprog and our Service Providers may store and access personal data such as cookies, device identifiers or other similar technologies on your device and process such data to personalise content and ads, as well as provide social media features and to analyse the traffic.

  • Store and/or access information on your device

    Cookies, device identifiers or other information can be stored or accessed on your device for the purposes indicated above.

  • Personalised ads and content, ad and content measurement, audience insights, and products development

    Ads and content can be personalised based on a profile. More data can be added to better personalise ads and content. Ad and content performance can be measured. Insights about the audience who saw the ads and content can be derived. Such data can be used to develop or improve user’s experience, systems and software.

By clicking ‘I Agree’ you will allow the use of indicated cookies, device identifiers, web beacons or other similar technologies. Your settings can be changed in the browser on your device.

For certain purposes, legitimate interests may be relied on, rather than consent. You can read more about this in our Privacy and Cookie Policy.